Orbital Elements at Epoch 2459200.5 (2020-Dec-17.0) TDB
Reference: JPL 20 (heliocentric ecliptic J2000)
Element | Value | Uncertainty (1-sigma) | Units |
e | .2480840748312691 | 3.493e-08 | |
a | 2.225922773837215 | 7.1943e-09 | au |
q | 1.673706781843957 | 7.911e-08 | au |
i | 6.794014917363018 | 3.5273e-06 | deg |
node | 146.3206244523379 | 3.6475e-05 | deg |
peri | 121.1478963099893 | 3.7328e-05 | deg |
M | 226.5900338411965 | 1.0087e-05 | deg |
tp | 2459650.020331520295 (2022-Mar-11.52033152) | 3.5478e-05 | TDB |
period | 1213.007723536007 3.32 | 5.8807e-06 1.61e-08 | d yr |
n | .2967829412912337 | 1.4388e-09 | deg/d |
Q | 2.778138765830473 | 8.979e-09 | au |
|
| | Orbit Determination Parameters
Additional Information
|